• In Belarus
  • List of Countries
  • For 7 days
  • Water Temperature
  • Satellite Maps
  • Weather Map
  • Weather Widgets
  • user-avatar
    Login

    Hourly Weather Windhuk

    Today, 27 May, Monday

    Time Temperature Precipitation Wind Pressure Humidity
    00:00 +12°C° 0 mm 1 mps 622 mmHg 35%
    01:00 +12°C° 0 mm 1 mps 622 mmHg 37%
    02:00 +11°C° 0 mm 1 mps 622 mmHg 39%
    03:00 +11°C° 0 mm 1 mps 622 mmHg 41%
    04:00 +11°C° 0 mm 1 mps 622 mmHg 43%
    05:00 +11°C° 0 mm 1 mps 622 mmHg 43%
    06:00 +11°C° 0 mm 1 mps 622 mmHg 42%
    07:00 +12°C° 0 mm 2 mps 623 mmHg 41%
    08:00 +14°C° 0 mm 2 mps 624 mmHg 36%
    09:00 +16°C° 0 mm 3 mps 624 mmHg 31%
    10:00 +19°C° 0 mm 4 mps 625 mmHg 26%
    11:00 +20°C° 0 mm 3 mps 625 mmHg 24%
    12:00 +21°C° 0 mm 2 mps 625 mmHg 23%
    13:00 +23°C° 0 mm 2 mps 625 mmHg 21%
    14:00 +23°C° 0 mm 1 mps 624 mmHg 21%
    15:00 +23°C° 0 mm 1 mps 624 mmHg 20%
    16:00 +23°C° 0 mm 1 mps 624 mmHg 20%
    17:00 +20°C° 0 mm 1 mps 623 mmHg 24%
    18:00 +18°C° 0 mm 1 mps 622 mmHg 29%
    19:00 +14°C° 0 mm 1 mps 621 mmHg 33%
    20:00 +14°C° 0 mm 1 mps 621 mmHg 35%
    21:00 +12°C° 0 mm 0 mps 622 mmHg 36%
    22:00 +12°C° 0 mm 0 mps 622 mmHg 38%
    23:00 +11°C° 0 mm 0 mps 622 mmHg 38%

    Tomorrow, 28 May, Tuesday

    Time Temperature Precipitation Wind Pressure Humidity
    00:00 +11°C° 0 mm 0 mps 621 mmHg 38%
    01:00 +11°C° 0 mm 1 mps 621 mmHg 39%
    02:00 +11°C° 0 mm 1 mps 621 mmHg 39%
    03:00 +10°C° 0 mm 1 mps 621 mmHg 40%
    04:00 +10°C° 0 mm 1 mps 621 mmHg 40%
    05:00 +10°C° 0 mm 1 mps 621 mmHg 39%
    06:00 +11°C° 0 mm 1 mps 622 mmHg 39%
    07:00 +11°C° 0 mm 1 mps 622 mmHg 38%
    08:00 +14°C° 0 mm 1 mps 623 mmHg 32%
    09:00 +17°C° 0 mm 2 mps 624 mmHg 26%
    10:00 +20°C° 0 mm 2 mps 625 mmHg 21%
    11:00 +21°C° 0 mm 2 mps 625 mmHg 20%
    12:00 +21°C° 0 mm 2 mps 624 mmHg 19%
    13:00 +23°C° 0 mm 2 mps 624 mmHg 18%
    14:00 +23°C° 0 mm 2 mps 624 mmHg 17%
    15:00 +23°C° 0 mm 2 mps 623 mmHg 17%
    16:00 +23°C° 0 mm 2 mps 623 mmHg 17%
    17:00 +21°C° 0 mm 1 mps 623 mmHg 21%
    18:00 +18°C° 0 mm 1 mps 622 mmHg 25%
    19:00 +15°C° 0 mm 1 mps 621 mmHg 29%
    20:00 +14°C° 0 mm 1 mps 621 mmHg 29%
    21:00 +14°C° 0 mm 1 mps 622 mmHg 29%
    22:00 +13°C° 0 mm 1 mps 622 mmHg 30%
    23:00 +13°C° 0 mm 2 mps 622 mmHg 30%

    Day after tomorrow, 29 May, Wednesday

    Time Temperature Precipitation Wind Pressure Humidity
    00:00 +13°C° 0 mm 2 mps 621 mmHg 31%
    01:00 +12°C° 0 mm 2 mps 621 mmHg 32%
    02:00 +12°C° 0 mm 2 mps 621 mmHg 33%
    03:00 +10°C° 0 mm 2 mps 621 mmHg 35%
    04:00 +10°C° 0 mm 2 mps 621 mmHg 37%
    05:00 +10°C° 0 mm 2 mps 621 mmHg 37%
    06:00 +10°C° 0 mm 2 mps 622 mmHg 37%
    07:00 +12°C° 0 mm 2 mps 622 mmHg 37%
    08:00 +14°C° 0 mm 3 mps 623 mmHg 31%
    09:00 +18°C° 0 mm 4 mps 624 mmHg 25%
    10:00 +21°C° 0 mm 5 mps 626 mmHg 20%
    11:00 +22°C° 0 mm 5 mps 625 mmHg 18%
    12:00 +23°C° 0 mm 5 mps 625 mmHg 17%
    13:00 +25°C° 0 mm 4 mps 624 mmHg 16%
    14:00 +23°C° 0 mm 4 mps 624 mmHg 16%
    15:00 +23°C° 0 mm 4 mps 624 mmHg 16%
    16:00 +23°C° 0 mm 4 mps 623 mmHg 16%
    17:00 +21°C° 0 mm 3 mps 623 mmHg 20%
    18:00 +18°C° 0 mm 2 mps 622 mmHg 24%
    19:00 +16°C° 0 mm 2 mps 621 mmHg 28%
    20:00 +15°C° 0 mm 1 mps 621 mmHg 30%
    21:00 +14°C° 0 mm 1 mps 621 mmHg 32%
    22:00 +12°C° 0 mm 0 mps 621 mmHg 34%
    23:00 +12°C° 0 mm 0 mps 621 mmHg 34%

    30 May, Thursday

    Time Temperature Precipitation Wind Pressure Humidity
    00:00 +12°C° 0 mm 0 mps 621 mmHg 35%
    01:00 +12°C° 0 mm 1 mps 621 mmHg 35%
    02:00 +12°C° 0 mm 1 mps 621 mmHg 35%
    03:00 +12°C° 0 mm 1 mps 621 mmHg 35%
    04:00 +12°C° 0 mm 2 mps 621 mmHg 35%
    05:00 +12°C° 0 mm 2 mps 621 mmHg 36%
    06:00 +12°C° 0 mm 2 mps 622 mmHg 36%
    07:00 +13°C° 0 mm 2 mps 622 mmHg 37%
    08:00 +14°C° 0 mm 3 mps 623 mmHg 33%
    09:00 +18°C° 0 mm 4 mps 624 mmHg 28%
    10:00 +21°C° 0 mm 5 mps 625 mmHg 24%
    11:00 +22°C° 0 mm 5 mps 625 mmHg 23%
    12:00 +23°C° 0 mm 5 mps 624 mmHg 22%
    13:00 +25°C° 0 mm 5 mps 624 mmHg 21%
    14:00 +25°C° 0 mm 5 mps 624 mmHg 21%
    15:00 +23°C° 0 mm 5 mps 623 mmHg 22%
    16:00 +23°C° 0 mm 5 mps 623 mmHg 22%
    17:00 +21°C° 0 mm 3 mps 622 mmHg 27%
    18:00 +18°C° 0 mm 2 mps 622 mmHg 32%
    19:00 +16°C° 0 mm 1 mps 621 mmHg 37%
    20:00 +15°C° 0 mm 1 mps 621 mmHg 39%
    21:00 +15°C° 0 mm 1 mps 621 mmHg 40%
    22:00 +13°C° 0 mm 0 mps 621 mmHg 42%
    23:00 +13°C° 0 mm 0 mps 621 mmHg 43%

    31 May, Friday

    Time Temperature Precipitation Wind Pressure Humidity
    00:00 +12°C° 0 mm 0 mps 621 mmHg 44%
    01:00 +12°C° 0 mm 0 mps 620 mmHg 46%
    02:00 +12°C° 0 mm 0 mps 620 mmHg 46%
    03:00 +12°C° 0 mm 0 mps 620 mmHg 47%
    04:00 +12°C° 0 mm 0 mps 620 mmHg 47%
    05:00 +13°C° 0 mm 1 mps 621 mmHg 46%
    06:00 +13°C° 0 mm 1 mps 621 mmHg 45%
    07:00 +13°C° 0 mm 1 mps 622 mmHg 44%
    08:00 +16°C° 0 mm 2 mps 623 mmHg 38%
    09:00 +19°C° 0 mm 2 mps 624 mmHg 32%
    10:00 +21°C° 0 mm 3 mps 625 mmHg 26%
    11:00 +22°C° 0 mm 4 mps 625 mmHg 25%
    12:00 +23°C° 0 mm 4 mps 624 mmHg 23%
    13:00 +25°C° 0 mm 5 mps 624 mmHg 22%
    14:00 +25°C° 0 mm 5 mps 624 mmHg 22%
    15:00 +25°C° 0 mm 5 mps 623 mmHg 22%
    16:00 +23°C° 0 mm 5 mps 623 mmHg 23%
    17:00 +21°C° 0 mm 4 mps 622 mmHg 27%
    18:00 +19°C° 0 mm 3 mps 622 mmHg 31%
    19:00 +17°C° 0 mm 2 mps 622 mmHg 35%
    20:00 +16°C° 0 mm 2 mps 622 mmHg 37%
    21:00 +16°C° 0 mm 2 mps 622 mmHg 39%
    22:00 +15°C° 0 mm 1 mps 622 mmHg 41%
    23:00 +14°C° 0 mm 1 mps 621 mmHg 43%

    1 June, Saturday

    Time Temperature Precipitation Wind Pressure Humidity
    00:00 +13°C° 0 mm 1 mps 621 mmHg 45%
    01:00 +13°C° 0 mm 1 mps 620 mmHg 47%
    02:00 +12°C° 0 mm 1 mps 620 mmHg 48%
    03:00 +12°C° 0 mm 1 mps 620 mmHg 49%
    04:00 +12°C° 0 mm 1 mps 620 mmHg 50%
    05:00 +11°C° 0 mm 0 mps 621 mmHg 49%
    06:00 +11°C° 0 mm 0 mps 621 mmHg 49%
    07:00 +12°C° 0 mm 0 mps 622 mmHg 48%
    08:00 +16°C° 0 mm 1 mps 623 mmHg 40%
    09:00 +20°C° 0 mm 1 mps 624 mmHg 32%
    10:00 +23°C° 0 mm 1 mps 625 mmHg 25%
    11:00 +24°C° 0 mm 2 mps 625 mmHg 22%
    12:00 +25°C° 0 mm 3 mps 624 mmHg 19%
    13:00 +26°C° 0 mm 4 mps 624 mmHg 16%
    14:00 +26°C° 0 mm 4 mps 624 mmHg 17%
    15:00 +26°C° 0 mm 4 mps 624 mmHg 17%
    16:00 +25°C° 0 mm 4 mps 624 mmHg 18%
    17:00 +22°C° 0 mm 4 mps 623 mmHg 22%
    18:00 +20°C° 0 mm 3 mps 623 mmHg 27%
    19:00 +17°C° 0 mm 2 mps 622 mmHg 31%
    20:00 +16°C° 0 mm 2 mps 622 mmHg 33%
    21:00 +16°C° 0 mm 1 mps 622 mmHg 35%
    22:00 +15°C° 0 mm 1 mps 622 mmHg 37%
    23:00 +15°C° 0 mm 1 mps 622 mmHg 37%
    Show more